Total_Precipitation_Accumulation
1.55 2.01 2.52 3.03 3.70 4.62 5.52 5.84 5.55 4.95 4.51 4.07 3.56 3.16 2.81 2.56 2.46 2.15 1.80 1.64 1.59 1.59 1.73 1.49 1.59 1.62 1.65 1.64 1.68 1.76 1.66 1.45 1.62 1.87 1.68 1.36 1.21 1.16 1.07 1.03 1.12 1.03 1.07
1.61 2.11 2.69 3.11 3.46 3.99 4.73 5.00 4.62 3.96 3.39 3.08 2.91 2.70 2.59 2.28 2.06 1.95 1.80 1.52 1.48 1.51 1.52 1.54 1.31 1.34 1.45 1.35 1.39 1.64 1.61 1.38 1.48 1.79 1.86 1.61 1.52 1.30 0.85 0.89 0.99 1.02 1.15
1.46 2.17 2.68 2.95 3.24 3.45 3.44 3.54 3.41 2.90 2.54 2.43 2.41 2.36 2.41 2.20 1.93 1.77 1.59 1.38 1.30 1.25 1.27 1.26 1.23 1.32 1.26 1.30 1.37 1.45 1.53 1.43 1.34 1.46 1.85 1.72 1.49 1.28 1.05 0.96 0.94 1.08 1.30
1.30 2.04 2.29 2.36 2.45 2.57 2.38 2.38 2.44 2.26 2.18 2.08 2.08 1.94 1.77 1.70 1.58 1.57 1.48 1.36 1.27 1.20 1.10 1.12 1.10 1.17 1.18 1.36 1.20 1.23 1.38 1.41 1.26 1.31 1.43 1.46 1.47 1.43 1.26 1.09 1.00 1.07 1.20
1.00 1.34 1.39 1.49 1.59 1.68 1.72 1.88 2.11 2.10 2.01 1.95 2.03 2.00 1.72 1.55 1.45 1.46 1.50 1.37 1.24 1.18 1.08 1.09 1.14 1.16 1.14 1.19 1.22 1.36 1.33 1.30 1.25 1.25 1.32 1.44 1.44 1.34 1.33 1.27 1.13 1.06 0.97
0.69 0.88 0.94 0.97 1.04 1.10 1.23 1.43 1.79 1.93 1.84 1.79 1.81 1.77 1.67 1.60 1.46 1.35 1.34 1.31 1.23 1.21 1.22 1.18 1.23 1.20 1.18 1.19 1.19 1.25 1.27 1.29 1.33 1.25 1.23 1.40 1.48 1.40 1.40 1.31 1.17 1.08 0.92
0.61 0.71 0.84 0.86 0.80 0.79 0.90 1.09 1.32 1.43 1.47 1.54 1.62 1.65 1.70 1.63 1.46 1.36 1.26 1.24 1.14 1.13 1.26 1.28 1.28 1.31 1.31 1.24 1.23 1.22 1.17 1.25 1.38 1.30 1.20 1.22 1.24 1.32 1.37 1.35 1.18 1.12 1.02
0.46 0.48 0.56 0.55 0.54 0.63 0.72 0.88 0.99 1.07 1.16 1.24 1.35 1.46 1.48 1.47 1.38 1.39 1.30 1.22 1.12 1.10 1.21 1.30 1.28 1.24 1.19 1.15 1.30 1.19 1.15 1.25 1.32 1.26 1.44 1.36 1.21 1.37 1.45 1.45 1.48 1.35 1.30
0.31 0.29 0.29 0.30 0.37 0.52 0.65 0.72 0.80 0.87 0.96 1.04 1.19 1.29 1.33 1.31 1.34 1.33 1.23 1.16 1.19 1.13 1.18 1.13 1.19 1.21 1.15 1.15 1.25 1.22 1.24 1.29 1.26 1.34 1.52 1.51 1.40 1.42 1.46 1.57 1.72 1.83 1.67
0.25 0.23 0.22 0.21 0.23 0.28 0.44 0.59 0.67 0.78 0.91 0.97 0.99 1.03 1.18 1.16 1.17 1.15 1.08 1.15 1.17 1.14 1.21 1.22 1.12 1.12 1.13 1.19 1.31 1.29 1.27 1.38 1.45 1.59 1.69 1.67 1.63 1.61 1.53 1.57 1.67 1.82 1.86
0.27 0.22 0.21 0.20 0.19 0.23 0.34 0.48 0.56 0.66 0.75 0.78 0.80 0.92 1.02 1.02 0.99 0.99 0.97 1.02 1.04 1.07 1.12 1.14 1.14 1.13 1.19 1.37 1.62 1.58 1.52 1.55 1.61 1.70 1.83 1.87 1.97 1.96 1.78 1.71 1.67 1.71 1.83
0.37 0.28 0.25 0.21 0.26 0.27 0.31 0.41 0.42 0.45 0.50 0.55 0.62 0.75 0.88 0.89 0.88 0.91 1.04 1.09 1.06 1.00 0.91 0.94 1.00 1.00 1.11 1.33 1.65 1.79 1.78 1.79 1.71 1.79 2.01 2.03 2.01 1.92 1.81 1.83 1.74 1.70 1.84
0.37 0.44 0.40 0.28 0.30 0.27 0.30 0.34 0.30 0.35 0.39 0.44 0.50 0.60 0.75 0.86 0.92 0.97 1.04 1.11 1.12 1.05 1.01 1.02 1.03 1.12 1.19 1.25 1.45 1.63 1.70 1.74 1.71 1.83 1.89 1.90 1.97 1.89 1.83 1.76 1.72 1.68 1.82
0.34 0.48 0.52 0.31 0.26 0.27 0.30 0.29 0.31 0.35 0.37 0.42 0.50 0.59 0.68 0.84 0.96 1.02 1.09 1.16 1.19 1.15 1.16 1.16 1.19 1.26 1.30 1.30 1.39 1.53 1.63 1.68 1.72 1.81 1.88 1.90 1.91 1.96 2.06 1.93 1.88 1.93 2.00
0.36 0.33 0.37 0.30 0.30 0.31 0.31 0.32 0.37 0.41 0.41 0.47 0.55 0.61 0.70 0.76 0.87 1.04 1.15 1.25 1.31 1.24 1.28 1.34 1.34 1.33 1.27 1.22 1.43 1.57 1.57 1.70 1.77 1.78 1.74 1.80 1.99 2.08 2.10 1.94 1.94 2.05 2.03
0.43 0.47 0.47 0.43 0.45 0.43 0.39 0.39 0.46 0.49 0.55 0.64 0.68 0.71 0.79 0.89 0.95 1.03 1.07 1.21 1.27 1.32 1.40 1.47 1.48 1.41 1.23 1.41 1.54 1.56 1.58 1.67 1.73 1.74 1.67 1.59 1.62 1.72 1.81 1.78 1.72 1.76 1.81
0.59 0.67 0.71 0.66 0.61 0.53 0.47 0.48 0.54 0.61 0.69 0.78 0.90 0.97 1.02 1.13 1.17 1.18 1.16 1.19 1.33 1.43 1.46 1.46 1.47 1.44 1.51 1.55 1.42 1.37 1.29 1.35 1.43 1.43 1.40 1.23 1.15 1.36 1.44 1.57 1.56 1.46 1.43
0.60 0.70 0.78 0.80 0.73 0.69 0.66 0.73 0.78 0.84 0.97 1.08 1.20 1.32 1.38 1.46 1.51 1.56 1.52 1.51 1.56 1.64 1.63 1.56 1.57 1.65 1.68 1.67 1.44 1.33 1.20 1.20 1.21 1.20 1.17 1.16 1.14 1.19 1.29 1.35 1.36 1.31 1.27
0.67 0.84 0.83 0.82 0.82 0.93 0.95 0.95 1.00 1.07 1.24 1.41 1.53 1.63 1.69 1.73 1.74 1.72 1.75 1.81 1.90 1.91 1.91 1.88 1.92 1.94 2.00 1.97 1.68 1.54 1.33 1.28 1.23 1.24 1.29 1.28 1.18 1.24 1.20 1.18 1.20 1.20 1.25
0.76 0.88 0.94 0.93 1.00 1.23 1.26 1.27 1.32 1.39 1.45 1.50 1.61 1.77 1.89 1.94 1.90 1.89 2.00 2.15 2.27 2.24 2.24 2.28 2.29 2.22 2.19 2.14 1.79 1.60 1.38 1.39 1.37 1.41 1.36 1.29 1.14 1.09 1.04 1.04 1.10 1.07 1.07
0.73 0.83 0.88 0.95 1.02 1.18 1.32 1.53 1.67 1.71 1.75 1.76 1.78 1.83 1.90 2.01 2.02 2.07 2.13 2.26 2.36 2.34 2.32 2.26 2.19 2.13 2.14 2.09 1.79 1.62 1.46 1.48 1.50 1.41 1.36 1.29 1.17 1.00 0.96 0.90 0.91 0.94 0.99
0.63 0.73 0.90 1.01 1.11 1.26 1.48 1.67 1.81 1.93 2.01 1.99 2.04 2.02 2.03 1.98 1.94 2.08 2.20 2.30 2.41 2.37 2.32 2.35 2.23 2.14 2.10 1.94 1.74 1.58 1.49 1.55 1.59 1.53 1.42 1.34 1.20 0.97 0.90 0.81 0.82 0.85 0.84
0.70 0.74 0.86 1.00 1.09 1.19 1.41 1.73 1.78 1.80 1.84 1.89 1.91 1.96 1.96 1.99 2.01 2.09 2.18 2.30 2.32 2.28 2.21 2.21 2.20 2.12 2.02 1.96 1.77 1.54 1.44 1.44 1.44 1.54 1.59 1.42 1.25 1.06 0.93 0.93 0.90 0.83 0.78
0.74 0.80 0.87 0.98 1.06 1.02 1.12 1.29 1.43 1.51 1.54 1.57 1.60 1.61 1.70 1.78 1.93 2.10 2.13 2.20 2.26 2.27 2.27 2.22 2.15 2.10 2.06 2.05 1.87 1.64 1.46 1.44 1.49 1.55 1.59 1.45 1.32 1.15 1.00 0.97 0.87 0.78 0.76
0.64 0.71 0.86 0.86 0.90 0.97 0.97 1.00 1.06 1.22 1.33 1.37 1.40 1.46 1.57 1.66 1.82 2.02 2.12 2.04 2.05 2.18 2.11 2.00 1.91 1.85 1.81 1.89 1.78 1.56 1.47 1.46 1.54 1.60 1.67 1.60 1.48 1.37 1.22 1.12 1.06 1.01 0.96
0.64 0.69 0.75 0.75 0.73 0.81 0.83 0.85 0.97 1.15 1.26 1.26 1.26 1.28 1.30 1.40 1.52 1.65 1.74 1.69 1.50 1.53 1.46 1.34 1.22 1.19 1.23 1.29 1.25 1.16 1.10 1.15 1.29 1.40 1.57 1.56 1.46 1.37 1.33 1.29 1.22 1.16 1.08